JAL307 RJTT-RJFF

Flight info

Callsign JAL307
Flight time 1h 32m
Altitude 40000
Route TIARA GUSRO Y20 KIRIN
Aircraft A359/H-SDE2E3GHIJ3J4J5LM1ORWXY/LB1D1

Departure

Time 2026-02-18 04:35
Airport Tokyo Haneda International Airport (RJTT)

Arrival

Time 2026-02-18 06:07
Airport Fukuoka Airport (RJFF)
Time Latitude Longitude Altitude Speed Heading
2026-02-18 04:03 35.54782 139.78265 30 ft 0 kts 54°
2026-02-18 04:22 35.54777 139.78258 30 ft 3 kts 54°
2026-02-18 04:22 35.54765 139.78238 28 ft 3 kts 54°
2026-02-18 04:22 35.54754 139.78220 28 ft 3 kts 58°
2026-02-18 04:23 35.54752 139.78178 26 ft 3 kts 134°
2026-02-18 04:23 35.54767 139.78163 28 ft 2 kts 149°
2026-02-18 04:23 35.54773 139.78159 29 ft 0 kts 149°
2026-02-18 04:26 35.54759 139.78169 30 ft 5 kts 149°
2026-02-18 04:26 35.54723 139.78195 30 ft 7 kts 149°
2026-02-18 04:26 35.54673 139.78230 30 ft 9 kts 149°
2026-02-18 04:27 35.54543 139.78323 30 ft 13 kts 149°
2026-02-18 04:27 35.54460 139.78382 30 ft 15 kts 150°
2026-02-18 04:27 35.54374 139.78443 30 ft 12 kts 150°
2026-02-18 04:27 35.54314 139.78487 31 ft 9 kts 142°
2026-02-18 04:28 35.54297 139.78551 33 ft 7 kts 83°
2026-02-18 04:28 35.54310 139.78592 34 ft 11 kts 63°
2026-02-18 04:28 35.54363 139.78704 37 ft 19 kts 60°
2026-02-18 04:28 35.54452 139.78890 43 ft 18 kts 60°
2026-02-18 04:29 35.54491 139.78974 46 ft 17 kts 59°
2026-02-18 04:29 35.54577 139.79156 41 ft 20 kts 60°
2026-02-18 04:29 35.54635 139.79278 36 ft 16 kts 60°
2026-02-18 04:29 35.54676 139.79365 34 ft 19 kts 59°
2026-02-18 04:30 35.54760 139.79542 32 ft 13 kts 59°
2026-02-18 04:30 35.54786 139.79596 31 ft 10 kts 59°
2026-02-18 04:30 35.54779 139.79673 32 ft 10 kts 130°
2026-02-18 04:31 35.54546 139.79850 30 ft 21 kts 149°
2026-02-18 04:31 35.54459 139.79913 28 ft 22 kts 150°
2026-02-18 04:31 35.54321 139.80009 28 ft 23 kts 150°
2026-02-18 04:31 35.54178 139.80111 28 ft 22 kts 150°
2026-02-18 04:32 35.54065 139.80191 28 ft 15 kts 150°
2026-02-18 04:32 35.53990 139.80245 30 ft 12 kts 150°
2026-02-18 04:32 35.53927 139.80291 31 ft 9 kts 144°
2026-02-18 04:32 35.53910 139.80342 33 ft 5 kts 83°
2026-02-18 04:33 35.53919 139.80373 35 ft 4 kts 64°
2026-02-18 04:33 35.53935 139.80407 36 ft 6 kts 60°
2026-02-18 04:33 35.53962 139.80463 39 ft 8 kts 59°
2026-02-18 04:33 35.54003 139.80487 40 ft 7 kts 350°
2026-02-18 04:34 35.54034 139.80469 37 ft 0 kts 329°
2026-02-18 04:34 35.54038 139.80465 38 ft 5 kts 329°
2026-02-18 04:34 35.54225 139.80334 34 ft 66 kts 330°
2026-02-18 04:35 35.55728 139.79262 196 ft 165 kts 332°
2026-02-18 04:35 35.56701 139.78580 909 ft 158 kts 332°
2026-02-18 04:35 35.57744 139.78251 1618 ft 159 kts
2026-02-18 04:35 35.58793 139.78757 2033 ft 173 kts 34°
2026-02-18 04:36 35.59663 139.79869 2292 ft 195 kts 55°
2026-02-18 04:36 35.60363 139.81414 2498 ft 221 kts 65°
2026-02-18 04:36 35.60997 139.83248 2778 ft 243 kts 72°
2026-02-18 04:36 35.61227 139.85354 3262 ft 255 kts 91°
2026-02-18 04:37 35.61146 139.87549 3931 ft 260 kts 93°
2026-02-18 04:37 35.61056 139.89790 4596 ft 265 kts 92°
2026-02-18 04:37 35.61078 139.92080 5214 ft 272 kts 82°
2026-02-18 04:37 35.61741 139.94263 5797 ft 277 kts 53°
2026-02-18 04:38 35.63178 139.95797 6395 ft 276 kts 23°
2026-02-18 04:38 35.64993 139.96370 7022 ft 273 kts
2026-02-18 04:38 35.66892 139.96415 7667 ft 273 kts 350°
2026-02-18 04:39 35.70177 139.94490 8990 ft 262 kts 306°
2026-02-18 04:39 35.70971 139.92525 9702 ft 256 kts 279°
2026-02-18 04:39 35.70973 139.90355 10294 ft 258 kts 257°
2026-02-18 04:39 35.70320 139.88239 10576 ft 272 kts 252°
2026-02-18 04:40 35.69971 139.85891 10843 ft 287 kts 266°
2026-02-18 04:40 35.69821 139.83418 11126 ft 301 kts 263°
2026-02-18 04:40 35.69561 139.80809 11478 ft 311 kts 262°
2026-02-18 04:40 35.69310 139.78151 12017 ft 315 kts 263°
2026-02-18 04:41 35.69083 139.75469 12628 ft 317 kts 263°
2026-02-18 04:41 35.68869 139.72762 13193 ft 319 kts 263°
2026-02-18 04:41 35.68662 139.70034 13766 ft 321 kts 263°
2026-02-18 04:41 35.68459 139.67288 14270 ft 323 kts 263°
2026-02-18 04:42 35.68257 139.64531 14799 ft 325 kts 263°
2026-02-18 04:42 35.68055 139.61760 15331 ft 326 kts 263°
2026-02-18 04:42 35.67855 139.59016 15860 ft 327 kts 263°
2026-02-18 04:43 35.67445 139.53410 16941 ft 330 kts 263°
2026-02-18 04:43 35.67237 139.50594 17451 ft 333 kts 263°
2026-02-18 04:43 35.67027 139.47741 17910 ft 337 kts 263°
2026-02-18 04:43 35.66897 139.44858 18394 ft 339 kts 265°
2026-02-18 04:44 35.66819 139.41954 18864 ft 340 kts 266°
2026-02-18 04:44 35.66750 139.39038 19342 ft 342 kts 266°
2026-02-18 04:44 35.66687 139.36115 19790 ft 344 kts 266°
2026-02-18 04:44 35.66628 139.33203 20241 ft 345 kts 266°
2026-02-18 04:45 35.66570 139.30249 20674 ft 347 kts 266°
2026-02-18 04:45 35.66512 139.27277 21100 ft 350 kts 266°
2026-02-18 04:45 35.66454 139.24271 21483 ft 352 kts 266°
2026-02-18 04:45 35.66394 139.21250 21900 ft 355 kts 266°
2026-02-18 04:46 35.66335 139.18215 22327 ft 356 kts 266°
2026-02-18 04:46 35.66274 139.15167 22781 ft 357 kts 266°
2026-02-18 04:46 35.66212 139.12143 23245 ft 359 kts 265°
2026-02-18 04:47 35.65966 139.05994 23916 ft 363 kts 265°
2026-02-18 04:47 35.65637 138.99755 24544 ft 367 kts 264°
2026-02-18 04:47 35.65486 138.96618 24963 ft 367 kts 265°
2026-02-18 04:48 35.65341 138.93479 25336 ft 368 kts 264°
2026-02-18 04:48 35.65197 138.90335 25710 ft 369 kts 264°
2026-02-18 04:48 35.65055 138.87177 26032 ft 371 kts 264°
2026-02-18 04:48 35.64912 138.84008 26384 ft 372 kts 265°
2026-02-18 04:49 35.64770 138.80888 26850 ft 371 kts 264°
2026-02-18 04:49 35.64536 138.77733 27305 ft 371 kts 261°
2026-02-18 04:49 35.64173 138.74570 27597 ft 375 kts 260°
2026-02-18 04:49 35.63750 138.71394 27974 ft 377 kts 259°
2026-02-18 04:50 35.63295 138.68217 28411 ft 378 kts 258°
2026-02-18 04:50 35.62825 138.65034 28830 ft 379 kts 258°
2026-02-18 04:50 35.62349 138.61831 29128 ft 384 kts 259°
2026-02-18 04:51 35.61399 138.55375 29875 ft 387 kts 259°
2026-02-18 04:51 35.60924 138.52114 30239 ft 388 kts 259°
2026-02-18 04:51 35.60450 138.48851 30620 ft 388 kts 259°
2026-02-18 04:51 35.59976 138.45589 30996 ft 388 kts 259°
2026-02-18 04:52 35.59503 138.42331 31317 ft 388 kts 258°
2026-02-18 04:52 35.59025 138.39055 31626 ft 389 kts 258°
2026-02-18 04:52 35.58542 138.35791 32054 ft 388 kts 259°
2026-02-18 04:52 35.58061 138.32516 32308 ft 391 kts 258°
2026-02-18 04:53 35.57586 138.29270 32574 ft 392 kts 258°
2026-02-18 04:53 35.57104 138.25969 32800 ft 393 kts 259°
2026-02-18 04:53 35.56621 138.22670 33042 ft 394 kts 259°
2026-02-18 04:53 35.56138 138.19374 33531 ft 388 kts 258°
2026-02-18 04:54 35.55660 138.16140 34051 ft 383 kts 258°
2026-02-18 04:54 35.55185 138.12932 34314 ft 381 kts 258°
2026-02-18 04:54 35.54707 138.09727 34599 ft 382 kts 258°
2026-02-18 04:55 35.53741 138.03273 34899 ft 386 kts 258°
2026-02-18 04:55 35.53262 138.00075 35122 ft 384 kts 258°
2026-02-18 04:55 35.52782 137.96861 35414 ft 383 kts 258°
2026-02-18 04:55 35.52301 137.93645 35675 ft 382 kts 258°
2026-02-18 04:56 35.51823 137.90440 35942 ft 381 kts 258°
2026-02-18 04:56 35.51344 137.87244 36182 ft 381 kts 258°
2026-02-18 04:56 35.50862 137.84046 36407 ft 381 kts 258°
2026-02-18 04:56 35.50380 137.80855 36646 ft 380 kts 258°
2026-02-18 04:57 35.49898 137.77670 36878 ft 379 kts 258°
2026-02-18 04:57 35.49423 137.74537 37131 ft 377 kts 258°
2026-02-18 04:57 35.48941 137.71371 37336 ft 377 kts 258°
2026-02-18 04:57 35.48461 137.68214 37563 ft 377 kts 258°
2026-02-18 04:58 35.47977 137.65050 37773 ft 376 kts 258°
2026-02-18 04:58 35.47011 137.58744 38068 ft 376 kts 258°
2026-02-18 04:59 35.46047 137.52430 38265 ft 378 kts 258°
2026-02-18 04:59 35.45560 137.49261 38471 ft 377 kts 258°
2026-02-18 04:59 35.45081 137.46157 38674 ft 376 kts 258°
2026-02-18 04:59 35.44595 137.43011 38805 ft 376 kts 258°
2026-02-18 05:00 35.43616 137.36688 38898 ft 380 kts 258°
2026-02-18 05:00 35.42627 137.30314 39108 ft 380 kts 258°
2026-02-18 05:01 35.42131 137.27132 39210 ft 379 kts 258°
2026-02-18 05:01 35.41140 137.20787 39443 ft 379 kts 258°
2026-02-18 05:02 35.40154 137.14498 39656 ft 378 kts 258°
2026-02-18 05:02 35.39656 137.11332 39771 ft 378 kts 258°
2026-02-18 05:02 35.39158 137.08168 39885 ft 378 kts 258°
2026-02-18 05:03 35.37658 136.98669 39947 ft 379 kts 258°
2026-02-18 05:03 35.36649 136.92311 39945 ft 382 kts 258°
2026-02-18 05:04 35.35636 136.85951 39961 ft 385 kts 258°
2026-02-18 05:04 35.34606 136.79510 39962 ft 385 kts 258°
2026-02-18 05:05 35.33574 136.73076 39967 ft 385 kts 258°
2026-02-18 05:05 35.32541 136.66654 39954 ft 384 kts 258°
2026-02-18 05:06 35.31511 136.60281 39951 ft 384 kts 258°
2026-02-18 05:07 35.29948 136.50644 39948 ft 385 kts 258°
2026-02-18 05:07 35.28898 136.44208 39951 ft 386 kts 258°
2026-02-18 05:08 35.27845 136.37761 39950 ft 386 kts 259°
2026-02-18 05:08 35.26796 136.31358 39949 ft 387 kts 258°
2026-02-18 05:09 35.25731 136.24907 39962 ft 386 kts 258°
2026-02-18 05:09 35.24666 136.18464 39967 ft 386 kts 258°
2026-02-18 05:10 35.23599 136.12023 39963 ft 386 kts 258°
2026-02-18 05:10 35.22535 136.05631 39965 ft 387 kts 258°
2026-02-18 05:11 35.20919 135.95961 39962 ft 387 kts 258°
2026-02-18 05:11 35.19839 135.89525 39966 ft 387 kts 258°
2026-02-18 05:12 35.18754 135.83080 39974 ft 387 kts 259°
2026-02-18 05:12 35.17676 135.76677 39972 ft 387 kts 258°
2026-02-18 05:13 35.16596 135.70233 39979 ft 387 kts 258°
2026-02-18 05:13 35.15513 135.63801 39981 ft 386 kts 258°
2026-02-18 05:14 35.14428 135.57377 39973 ft 386 kts 258°
2026-02-18 05:15 35.12803 135.47790 40020 ft 386 kts 259°
2026-02-18 05:15 35.11710 135.41370 39993 ft 387 kts 258°
2026-02-18 05:16 35.10608 135.34931 39994 ft 388 kts 259°
2026-02-18 05:16 35.09505 135.28489 39995 ft 387 kts 259°
2026-02-18 05:17 35.08403 135.22106 40003 ft 387 kts 258°
2026-02-18 05:17 35.07295 135.15679 40007 ft 387 kts 259°
2026-02-18 05:18 35.06184 135.09257 40003 ft 387 kts 258°
2026-02-18 05:18 35.05068 135.02833 40001 ft 387 kts 258°
2026-02-18 05:19 35.03395 134.93239 39998 ft 387 kts 259°
2026-02-18 05:19 35.02271 134.86808 40000 ft 388 kts 259°
2026-02-18 05:20 35.01147 134.80426 39998 ft 388 kts 259°
2026-02-18 05:20 35.00011 134.74006 39992 ft 387 kts 259°
2026-02-18 05:21 34.98882 134.67639 39996 ft 386 kts 258°
2026-02-18 05:21 34.97654 134.61270 40019 ft 386 kts 257°
2026-02-18 05:22 34.96374 134.54910 39989 ft 387 kts 257°
2026-02-18 05:23 34.94470 134.45384 39997 ft 387 kts 257°
2026-02-18 05:23 34.93204 134.39016 40001 ft 387 kts 258°
2026-02-18 05:24 34.91936 134.32640 39998 ft 388 kts 258°
2026-02-18 05:24 34.90661 134.26247 40007 ft 388 kts 257°
2026-02-18 05:25 34.89380 134.19862 39994 ft 388 kts 258°
2026-02-18 05:25 34.88106 134.13524 40005 ft 388 kts 258°
2026-02-18 05:26 34.86818 134.07131 40005 ft 388 kts 258°
2026-02-18 05:26 34.85528 134.00745 40008 ft 388 kts 258°
2026-02-18 05:27 34.83590 133.91192 39976 ft 389 kts 257°
2026-02-18 05:27 34.82290 133.84811 39993 ft 388 kts 258°
2026-02-18 05:28 34.80968 133.78438 39993 ft 389 kts 257°
2026-02-18 05:28 34.79610 133.72048 39995 ft 390 kts 257°
2026-02-18 05:29 34.78251 133.65658 40000 ft 390 kts 257°
2026-02-18 05:29 34.76903 133.59313 40010 ft 389 kts 257°
2026-02-18 05:30 34.75548 133.52939 40016 ft 389 kts 257°
2026-02-18 05:31 34.73511 133.43383 40029 ft 389 kts 257°
2026-02-18 05:31 34.72148 133.37012 40016 ft 391 kts 257°
2026-02-18 05:32 34.70785 133.30660 40040 ft 391 kts 257°
2026-02-18 05:32 34.69409 133.24265 40042 ft 391 kts 257°
2026-02-18 05:33 34.68031 133.17884 40047 ft 391 kts 257°
2026-02-18 05:33 34.66647 133.11486 40047 ft 392 kts 257°
2026-02-18 05:34 34.65259 133.05089 40057 ft 392 kts 257°
2026-02-18 05:34 34.63879 132.98745 40056 ft 391 kts 257°
2026-02-18 05:35 34.61789 132.89171 40057 ft 392 kts 257°
2026-02-18 05:35 34.60388 132.82776 40063 ft 392 kts 257°
2026-02-18 05:36 34.58995 132.76432 40068 ft 392 kts 257°
2026-02-18 05:36 34.57587 132.70042 40069 ft 392 kts 257°
2026-02-18 05:37 34.56177 132.63660 40070 ft 392 kts 257°
2026-02-18 05:37 34.54760 132.57267 40083 ft 393 kts 257°
2026-02-18 05:38 34.53351 132.50917 40065 ft 393 kts 257°
2026-02-18 05:39 34.51217 132.41329 40088 ft 392 kts 257°
2026-02-18 05:39 34.49792 132.34954 40080 ft 392 kts 257°
2026-02-18 05:40 34.48361 132.28580 40087 ft 392 kts 257°
2026-02-18 05:40 34.46934 132.22240 40078 ft 393 kts 257°
2026-02-18 05:40 34.46214 132.19044 39867 ft 393 kts 257°
2026-02-18 05:41 34.45495 132.15849 39635 ft 394 kts 257°
2026-02-18 05:41 34.44774 132.12649 39421 ft 395 kts 257°
2026-02-18 05:41 34.44046 132.09430 39202 ft 395 kts 257°
2026-02-18 05:41 34.43316 132.06216 38987 ft 396 kts 257°
2026-02-18 05:42 34.42597 132.03055 38546 ft 394 kts 257°
2026-02-18 05:42 34.41863 131.99862 37878 ft 393 kts 257°
2026-02-18 05:42 34.41130 131.96674 37211 ft 393 kts 258°
2026-02-18 05:43 34.39685 131.90299 35859 ft 394 kts 257°
2026-02-18 05:43 34.38959 131.87092 35185 ft 396 kts 257°
2026-02-18 05:43 34.38229 131.83877 34418 ft 398 kts 257°
2026-02-18 05:43 34.37478 131.80622 33547 ft 403 kts 257°
2026-02-18 05:44 34.36717 131.77341 32710 ft 407 kts 257°
2026-02-18 05:44 34.35960 131.74071 31873 ft 410 kts 258°
2026-02-18 05:44 34.35198 131.70753 31315 ft 408 kts 260°
2026-02-18 05:44 34.34447 131.67457 30725 ft 405 kts 259°
2026-02-18 05:45 34.33695 131.64181 30117 ft 404 kts 259°
2026-02-18 05:45 34.32944 131.60914 29468 ft 402 kts 259°
2026-02-18 05:45 34.32195 131.57672 28859 ft 398 kts 259°
2026-02-18 05:45 34.31452 131.54466 28299 ft 394 kts 259°
2026-02-18 05:46 34.30713 131.51285 27712 ft 391 kts 259°
2026-02-18 05:46 34.29988 131.48170 27160 ft 388 kts 259°
2026-02-18 05:46 34.29258 131.45041 26566 ft 386 kts 260°
2026-02-18 05:47 34.27810 131.38842 25445 ft 380 kts 260°
2026-02-18 05:47 34.27093 131.35776 24869 ft 378 kts 260°
2026-02-18 05:47 34.26380 131.32723 24314 ft 377 kts 260°
2026-02-18 05:47 34.25670 131.29678 23717 ft 375 kts 260°
2026-02-18 05:48 34.24962 131.26652 23081 ft 373 kts 260°
2026-02-18 05:48 34.24257 131.23646 22513 ft 370 kts 260°
2026-02-18 05:48 34.23567 131.20707 21939 ft 367 kts 259°
2026-02-18 05:48 34.22873 131.17753 21363 ft 363 kts 259°
2026-02-18 05:49 34.22189 131.14843 20799 ft 359 kts 259°
2026-02-18 05:49 34.21507 131.11944 20214 ft 357 kts 259°
2026-02-18 05:49 34.20829 131.09067 19634 ft 356 kts 259°
2026-02-18 05:49 34.20152 131.06199 19049 ft 354 kts 259°
2026-02-18 05:50 34.19473 131.03349 18464 ft 353 kts 258°
2026-02-18 05:50 34.18622 131.00561 17796 ft 354 kts 254°
2026-02-18 05:50 34.17699 130.97859 17161 ft 352 kts 253°
2026-02-18 05:51 34.15801 130.92457 16175 ft 347 kts 253°
2026-02-18 05:51 34.14825 130.89787 15834 ft 346 kts 250°
2026-02-18 05:51 34.13477 130.87402 15506 ft 342 kts 236°
2026-02-18 05:51 34.11833 130.85409 15141 ft 328 kts 232°
2026-02-18 05:52 34.10202 130.83578 14757 ft 313 kts 232°
2026-02-18 05:52 34.08615 130.81823 14161 ft 306 kts 232°
2026-02-18 05:52 34.07092 130.80155 13718 ft 294 kts 232°
2026-02-18 05:52 34.05707 130.78415 13100 ft 283 kts 239°
2026-02-18 05:53 34.04501 130.76565 12697 ft 279 kts 242°
2026-02-18 05:53 34.03340 130.74722 12325 ft 275 kts 242°
2026-02-18 05:53 34.02193 130.72889 11925 ft 272 kts 242°
2026-02-18 05:53 34.01057 130.71062 11530 ft 271 kts 242°
2026-02-18 05:54 33.99938 130.69249 11096 ft 269 kts 242°
2026-02-18 05:54 33.98826 130.67435 10707 ft 268 kts 242°
2026-02-18 05:54 33.97745 130.65661 10316 ft 266 kts 242°
2026-02-18 05:55 33.95586 130.62085 9338 ft 261 kts 242°
2026-02-18 05:55 33.94531 130.60305 8630 ft 262 kts 242°
2026-02-18 05:55 33.93487 130.58513 8034 ft 261 kts 242°
2026-02-18 05:55 33.92456 130.56718 7441 ft 260 kts 242°
2026-02-18 05:56 33.91449 130.54932 6980 ft 255 kts 242°
2026-02-18 05:56 33.90474 130.53184 6615 ft 247 kts 242°
2026-02-18 05:56 33.89548 130.51512 6208 ft 239 kts 242°
2026-02-18 05:56 33.88648 130.49870 5783 ft 232 kts 242°
2026-02-18 05:57 33.87774 130.48267 5368 ft 226 kts 242°
2026-02-18 05:57 33.86923 130.46688 4996 ft 225 kts 242°
2026-02-18 05:57 33.86082 130.45097 4668 ft 225 kts 242°
2026-02-18 05:57 33.85246 130.43510 4345 ft 223 kts 242°
2026-02-18 05:58 33.84421 130.41941 4053 ft 221 kts 242°
2026-02-18 05:58 33.83605 130.40379 3704 ft 220 kts 242°
2026-02-18 05:58 33.82801 130.38831 3321 ft 222 kts 242°
2026-02-18 05:59 33.80713 130.36173 2686 ft 211 kts 223°
2026-02-18 05:59 33.79576 130.35126 2475 ft 204 kts 223°
2026-02-18 05:59 33.78444 130.34116 2312 ft 202 kts 222°
2026-02-18 05:59 33.77318 130.33121 2187 ft 200 kts 221°
2026-02-18 06:00 33.76201 130.32146 2063 ft 198 kts 222°
2026-02-18 06:00 33.74994 130.31342 1897 ft 204 kts 199°
2026-02-18 06:00 33.73585 130.31317 1834 ft 206 kts 177°
2026-02-18 06:00 33.72224 130.31644 1796 ft 194 kts 172°
2026-02-18 06:01 33.70911 130.31976 1805 ft 192 kts 171°
2026-02-18 06:01 33.69598 130.32296 1812 ft 193 kts 172°
2026-02-18 06:01 33.68284 130.32665 1802 ft 196 kts 166°
2026-02-18 06:01 33.67112 130.33531 1809 ft 202 kts 140°
2026-02-18 06:02 33.66050 130.34628 1802 ft 201 kts 147°
2026-02-18 06:02 33.64875 130.35520 1806 ft 199 kts 152°
2026-02-18 06:02 33.63682 130.36355 1646 ft 197 kts 153°
2026-02-18 06:03 33.61318 130.37993 1497 ft 200 kts 154°
2026-02-18 06:03 33.60109 130.38827 1500 ft 200 kts 153°
2026-02-18 06:03 33.58936 130.39641 1499 ft 188 kts 154°
2026-02-18 06:03 33.57838 130.40405 1499 ft 179 kts 154°
2026-02-18 06:04 33.56770 130.41147 1496 ft 178 kts 154°
2026-02-18 06:04 33.55694 130.41889 1499 ft 178 kts 154°
2026-02-18 06:04 33.54631 130.42625 1497 ft 178 kts 154°
2026-02-18 06:04 33.53550 130.43369 1495 ft 178 kts 155°
2026-02-18 06:05 33.52500 130.44122 1471 ft 178 kts 144°
2026-02-18 06:05 33.52018 130.45452 1370 ft 176 kts 86°
2026-02-18 06:05 33.52443 130.46734 1114 ft 162 kts 53°
2026-02-18 06:05 33.53090 130.47785 866 ft 147 kts 31°
2026-02-18 06:06 33.53989 130.48019 719 ft 132 kts 346°
2026-02-18 06:06 33.54863 130.47636 541 ft 135 kts 330°
2026-02-18 06:06 33.55673 130.47078 405 ft 131 kts 327°
2026-02-18 06:07 33.57215 130.46013 155 ft 128 kts 328°
2026-02-18 06:07 33.57975 130.45482 47 ft 125 kts 332°
2026-02-18 06:07 33.58617 130.45048 40 ft 79 kts 331°
2026-02-18 06:07 33.58931 130.44836 34 ft 31 kts 333°
2026-02-18 06:08 33.59088 130.44776 30 ft 22 kts 347°
2026-02-18 06:08 33.59225 130.44766 28 ft 15 kts 360°
2026-02-18 06:08 33.59312 130.44767 30 ft 12 kts
2026-02-18 06:08 33.59385 130.44753 31 ft 11 kts 337°
2026-02-18 06:09 33.59455 130.44705 31 ft 13 kts 330°
2026-02-18 06:09 33.59535 130.44650 31 ft 14 kts 330°
2026-02-18 06:09 33.59611 130.44599 31 ft 10 kts 330°
2026-02-18 06:09 33.59662 130.44570 31 ft 8 kts 348°
2026-02-18 06:10 33.59710 130.44594 31 ft 6 kts 33°
2026-02-18 06:10 33.59745 130.44610 31 ft 5 kts 30°
2026-02-18 06:10 33.59768 130.44649 31 ft 6 kts 60°
2026-02-18 06:11 33.59786 130.44686 31 ft 1 kts 60°
2026-02-18 06:11 33.59787 130.44689 31 ft 0 kts 60°